DW8343 Weather Reports


time (UTC)temp
C
wind
direction
speed
KPH
gust
KPH
rain 1hr
cm
rain 24hr
cm
rain mn
cm
humidity
%
barometer
mb
20260903221303 35 49 6.4 11.3 0.00 0.00 0.00 49 1012.0
20260903220800 35 45 1.6 4.8 0.00 0.00 0.00 48 1012.1
20260903220255 35 308 3.2 12.9 0.00 0.00 0.00 49 1012.2
20260903215753 35 51 1.6 9.7 0.00 0.00 0.00 50 1012.3
20260903215250 34 277 3.2 9.7 0.00 0.00 0.00 49 1012.4
20260903214748 35 21 6.4 17.7 0.00 0.00 0.00 49 1012.5
20260903214244 36 223 4.8 11.3 0.00 0.00 0.00 46 1012.3
20260903213738 35 22 3.2 6.4 0.00 0.00 0.00 48 1012.2
20260903213234 35 53 3.2 11.3 0.00 0.00 0.00 49 1012.3
20260903212729 35 311 1.6 9.7 0.00 0.00 0.00 48 1012.6
20260903212226 35 51 3.2 16.1 0.00 0.00 0.00 48 1012.3
20260903211719 35 250 6.4 9.7 0.00 0.00 0.00 48 1012.5
20260903211216 35 42 3.2 11.3 0.00 0.00 0.00 48 1012.4
20260903210712 36 282 3.2 4.8 0.00 0.00 0.00 46 1012.5
20260903210207 35 44 9.7 17.7 0.00 0.00 0.00 47 1012.4
20260903205707 35 17 3.2 6.4 0.00 0.00 0.00 47 1012.6
20260903205206 36 42 3.2 12.9 0.00 0.00 0.00 48 1012.7
20260903204702 35 136 3.2 11.3 0.00 0.00 0.00 47 1012.7
20260903204158 36 65 8.0 17.7 0.00 0.00 0.00 48 1013.0
20260903203653 36 25 3.2 11.3 0.00 0.00 0.00 48 1012.7
20260903203148 35 234 1.6 11.3 0.00 0.00 0.00 50 1012.7
20260903202643 36 78 6.4 9.7 0.00 0.00 0.00 47 1013.0
20260903202138 35 186 3.2 11.3 0.00 0.00 0.00 48 1013.0
20260903201632 36 11 4.8 12.9 0.00 0.00 0.00 47 1013.2
20260903201132 36 46 6.4 16.1 0.00 0.00 0.00 49 1013.1
20260903200628 36 338 1.6 4.8 0.00 0.00 0.00 49 1013.2
20260903200122 35 314 1.6 6.4 0.00 0.00 0.00 48 1013.2
20260903195618 36 67 3.2 11.3 0.00 0.00 0.00 47 1013.3
20260903195113 36 344 3.2 9.7 0.00 0.00 0.00 47 1013.2
20260903194608 36 8 1.6 9.7 0.00 0.00 0.00 45 1013.2
20260903194103 36 270 4.8 9.7 0.00 0.00 0.00 45 1013.2
20260903193559 36 97 1.6 9.7 0.00 0.00 0.00 46 1013.3
20260903193054 36 253 3.2 4.8 0.00 0.00 0.00 45 1013.3
20260903192551 35 317 1.6 6.4 0.00 0.00 0.00 47 1013.4
20260903192046 36 54 1.6 6.4 0.00 0.00 0.00 49 1013.5
20260903191537 35 286 3.2 14.5 0.00 0.00 0.00 50 1013.4
20260903191037 35 11 4.8 9.7 0.00 0.00 0.00 48 1013.5
20260903190536 35 40 4.8 9.7 0.00 0.00 0.00 49 1013.7
20260903190030 36 71 3.2 6.4 0.00 0.00 0.00 48 1013.7
20260903185526 35 254 3.2 6.4 0.00 0.00 0.00 48 1013.8
20260903185021 35 353 4.8 6.4 0.00 0.00 0.00 50 1013.9
20260903184518 35 0 3.2 11.3 0.00 0.00 0.00 49 1014.0
20260903184017 34 227 4.8 11.3 0.00 0.00 0.00 50 1014.2
20260903183516 34 227 4.8 11.3 0.00 0.00 0.00 50 1014.2
20260903183012 34 14 1.6 9.7 0.00 0.00 0.00 53 1014.2
20260903182510 34 256 1.6 6.4 0.00 0.00 0.00 54 1014.4
20260903182007 35 269 3.2 11.3 0.00 0.00 0.00 49 1014.3
20260903181500 34 227 1.6 9.7 0.00 0.00 0.00 52 1014.4
20260903180959 34 25 4.8 6.4 0.00 0.00 0.00 52 1014.5
20260903180455 33 113 6.4 11.3 0.00 0.00 0.00 52 1014.5
20260903175954 33 55 4.8 12.9 0.00 0.00 0.00 53 1014.5
20260903175448 34 276 3.2 11.3 0.00 0.00 0.00 53 1014.5
20260903174947 33 29 3.2 9.7 0.00 0.00 0.00 54 1014.7
20260903174443 33 115 3.2 9.7 0.00 0.00 0.00 54 1014.7
20260903173942 33 44 6.4 12.9 0.00 0.00 0.00 56 1014.8
20260903173438 33 232 1.6 9.7 0.00 0.00 0.00 55 1014.9
20260903172933 33 71 3.2 14.5 0.00 0.00 0.00 54 1015.0
20260903172428 33 69 4.8 6.4 0.00 0.00 0.00 55 1015.0
20260903171924 33 60 3.2 4.8 0.00 0.00 0.00 55 1014.9
20260903171419 32 223 4.8 6.4 0.00 0.00 0.00 55 1014.9
20260903170919 32 351 1.6 11.3 0.00 0.00 0.00 58 1015.1
20260903170413 33 225 8.0 11.3 0.00 0.00 0.00 55 1015.2
20260903165912 32 75 3.2 11.3 0.00 0.00 0.00 59 1015.2
20260903165407 32 72 3.2 6.4 0.00 0.00 0.00 57 1015.2
20260903164902 33 202 3.2 6.4 0.00 0.00 0.00 56 1015.3
20260903164402 32 342 1.6 4.8 0.00 0.00 0.00 57 1015.3
20260903163901 31 336 1.6 11.3 0.00 0.00 0.00 60 1015.3
20260903163358 32 221 1.6 4.8 0.00 0.00 0.00 58 1015.4
20260903162853 32 271 1.6 3.2 0.00 0.00 0.00 58 1015.5
20260903162350 32 189 1.6 11.3 0.00 0.00 0.00 60 1015.6
20260903161845 31 275 1.6 6.4 0.00 0.00 0.00 60 1015.3
20260903161340 31 332 3.2 6.4 0.00 0.00 0.00 61 1015.5
20260903160836 31 46 1.6 6.4 0.00 0.00 0.00 63 1015.4
20260903160335 30 22 4.8 9.7 0.00 0.00 0.00 64 1015.4
20260903155833 31 274 3.2 6.4 0.00 0.00 0.00 62 1015.3
20260903155329 30 35 3.2 9.7 0.00 0.00 0.00 64 1015.5
20260903154824 30 294 3.2 4.8 0.00 0.00 0.00 65 1015.4
20260903154320 30 53 3.2 12.9 0.00 0.00 0.00 66 1015.4
20260903153816 30 185 3.2 9.7 0.00 0.00 0.00 66 1015.3
20260903153311 29 225 1.6 9.7 0.00 0.00 0.00 66 1015.5
20260903152809 29 42 4.8 9.7 0.00 0.00 0.00 68 1015.5
20260903152306 29 34 3.2 6.4 0.00 0.00 0.00 68 1015.6
20260903151803 28 60 8.0 12.9 0.00 0.00 0.00 68 1015.7
20260903151254 29 241 1.6 6.4 0.00 0.00 0.00 68 1015.8
20260903150753 30 240 3.2 4.8 0.00 0.00 0.00 66 1015.6
20260903150248 28 69 3.2 4.8 0.00 0.00 0.00 69 1015.8
20260903145744 28 309 0.0 4.8 0.00 0.00 0.00 70 1015.8
20260903145239 28 195 3.2 14.5 0.00 0.00 0.00 70 1015.9
20260903144737 28 277 3.2 6.4 0.00 0.00 0.00 70 1016.1
20260903144233 28 32 3.2 11.3 0.00 0.00 0.00 71 1015.8
20260903143729 27 59 1.6 12.9 0.00 0.00 0.00 72 1016.2
20260903143225 27 171 1.6 6.4 0.00 0.00 0.00 73 1016.1
20260903142720 27 287 8.0 16.1 0.00 0.00 0.00 73 1016.1
20260903142217 27 102 8.0 12.9 0.00 0.00 0.00 73 1016.2
20260903141712 27 325 6.4 17.7 0.00 0.00 0.00 74 1016.2
20260903141208 27 34 1.6 6.4 0.00 0.00 0.00 73 1016.2
20260903140703 27 262 6.4 9.7 0.00 0.00 0.00 75 1016.4
20260903140158 26 270 6.4 11.3 0.00 0.00 0.00 75 1016.5
20260903135653 26 14 3.2 11.3 0.00 0.00 0.00 76 1016.5
20260903135148 26 250 4.8 12.9 0.00 0.00 0.00 75 1016.5
20260903134646 26 66 3.2 6.4 0.00 0.00 0.00 75 1016.5
20260903134137 26 84 1.6 9.7 0.00 0.00 0.00 76 1016.2
20260903133635 26 224 3.2 11.3 0.00 0.00 0.00 76 1016.3
20260903133130 26 296 1.6 9.7 0.00 0.00 0.00 76 1016.6
20260903132624 26 188 3.2 3.2 0.00 0.00 0.00 76 1016.4
20260903132120 26 128 0.0 4.8 0.00 0.00 0.00 77 1016.3
20260903131619 25 124 3.2 6.4 0.00 0.00 0.00 78 1016.2
20260903131118 25 134 0.0 4.8 0.00 0.00 0.00 79 1016.2
20260903130616 25 258 0.0 4.8 0.00 0.00 0.00 79 1016.3
20260903130109 25 272 0.0 9.7 0.00 0.00 0.00 79 1016.1
20260903125607 25 198 3.2 6.4 0.00 0.00 0.00 79 1015.9
20260903125102 25 241 1.6 9.7 0.00 0.00 0.00 79 1016.1
20260903124556 25 282 1.6 6.4 0.00 0.00 0.00 79 1016.2
20260903124057 25 249 1.6 6.4 0.00 0.00 0.00 79 1015.9
20260903123556 25 169 4.8 6.4 0.00 0.00 0.00 79 1015.8
20260903123054 25 305 4.8 6.4 0.00 0.00 0.00 79 1015.8
20260903122549 25 21 3.2 4.8 0.00 0.00 0.00 79 1015.8
20260903122048 25 110 3.2 9.7 0.00 0.00 0.00 79 1015.6
20260903121543 25 49 3.2 3.2 0.00 0.00 0.00 79 1015.7
20260903121039 25 263 3.2 4.8 0.00 0.00 0.00 78 1015.4
20260903120538 25 204 4.8 4.8 0.00 0.00 0.00 78 1015.6
20260903120033 25 343 0.0 4.8 0.00 0.00 0.00 78 1015.3
20260903115531 25 243 3.2 9.7 0.00 0.00 0.00 78 1015.4
20260903115026 25 224 4.8 9.7 0.00 0.00 0.00 78 1015.5
20260903114521 25 286 0.0 1.6 0.00 0.00 0.00 78 1015.4
20260903114017 25 240 1.6 3.2 0.00 0.00 0.00 77 1015.3
20260903113512 25 193 0.0 4.8 0.00 0.00 0.00 77 1015.2
20260903113009 25 337 1.6 4.8 0.00 0.00 0.00 76 1015.1
20260903112504 25 135 4.8 9.7 0.00 0.00 0.00 76 1015.1
20260903112003 25 306 3.2 6.4 0.00 0.00 0.00 76 1015.3
20260903111457 25 276 1.6 9.7 0.00 0.00 0.00 76 1015.1
20260903110954 25 77 3.2 6.4 0.00 0.00 0.00 76 1015.2
20260903110449 25 270 0.0 3.2 0.00 0.00 0.00 76 1015.1
20260903105943 25 240 0.0 3.2 0.00 0.00 0.00 76 1015.1
20260903105439 25 207 0.0 4.8 0.00 0.00 0.00 75 1015.0
20260903104938 25 270 6.4 12.9 0.00 0.00 0.00 75 1015.2
20260903104438 25 233 1.6 3.2 0.00 0.00 0.00 75 1015.2
20260903103935 26 260 1.6 6.4 0.00 0.00 0.00 75 1015.0
20260903103430 26 261 1.6 3.2 0.00 0.00 0.00 74 1015.0
20260903102926 26 291 3.2 4.8 0.00 0.00 0.00 74 1014.9
20260903102421 26 264 1.6 4.8 0.00 0.00 0.00 74 1015.0
20260903101920 26 152 3.2 6.4 0.00 0.00 0.00 73 1015.0
20260903101415 26 113 3.2 4.8 0.00 0.00 0.00 73 1015.1
20260903100910 26 60 3.2 6.4 0.00 0.00 0.00 73 1015.1
20260903100405 26 43 1.6 9.7 0.00 0.00 0.00 73 1015.1
20260903095902 26 111 1.6 3.2 0.00 0.00 0.00 73 1015.1
20260903095356 26 42 4.8 9.7 0.00 0.00 0.00 72 1015.0
20260903094851 26 279 3.2 3.2 0.00 0.00 0.00 72 1014.9
20260903094346 26 298 0.0 4.8 0.00 0.00 0.00 72 1014.9
20260903093842 26 291 1.6 3.2 0.00 0.00 0.00 72 1015.0
20260903093337 26 351 1.6 1.6 0.00 0.00 0.00 71 1015.0
20260903092832 26 181 1.6 4.8 0.00 0.00 0.00 71 1015.1
20260903092326 27 263 4.8 6.4 0.00 0.00 0.00 70 1015.1
20260903091825 27 251 3.2 9.7 0.00 0.00 0.00 70 1014.9
20260903091319 27 86 4.8 11.3 0.00 0.00 0.00 69 1014.9
20260903090815 27 48 3.2 4.8 0.00 0.00 0.00 69 1015.0
20260903090315 27 272 4.8 6.4 0.00 0.00 0.00 69 1015.2
20260903085813 27 98 1.6 6.4 0.00 0.00 0.00 68 1015.1
20260903085308 27 161 3.2 4.8 0.00 0.00 0.00 68 1015.1
20260903084806 27 249 1.6 6.4 0.00 0.00 0.00 68 1015.0
20260903084300 27 48 1.6 11.3 0.00 0.00 0.00 68 1015.1
20260903083755 27 201 0.0 3.2 0.00 0.00 0.00 68 1015.1
20260903083250 27 234 1.6 11.3 0.00 0.00 0.00 67 1015.0
20260903082749 27 69 1.6 4.8 0.00 0.00 0.00 67 1015.2
20260903082245 27 50 4.8 11.3 0.00 0.00 0.00 67 1015.1
20260903081745 27 25 6.4 9.7 0.00 0.00 0.00 66 1015.3
20260903081241 27 169 1.6 4.8 0.00 0.00 0.00 66 1015.2
20260903080737 27 75 1.6 3.2 0.00 0.00 0.00 66 1015.1
20260903080234 27 174 3.2 3.2 0.00 0.00 0.00 66 1015.0
20260903075734 28 289 0.0 4.8 0.00 0.00 0.00 65 1014.8
20260903075229 28 248 1.6 4.8 0.00 0.00 0.00 65 1015.0
20260903074728 28 28 3.2 6.4 0.00 0.00 0.00 65 1015.1
20260903074223 28 232 1.6 4.8 0.00 0.00 0.00 64 1014.9
20260903073718 28 91 3.2 6.4 0.00 0.00 0.00 64 1015.1
20260903073213 28 232 1.6 1.6 0.00 0.00 0.00 64 1015.1
20260903072709 28 136 1.6 1.6 0.00 0.00 0.00 63 1015.0
20260903072206 28 244 3.2 6.4 0.00 0.00 0.00 63 1015.1
20260903071702 28 159 1.6 4.8 0.00 0.00 0.00 63 1015.0
20260903071157 28 242 3.2 4.8 0.00 0.00 0.00 63 1015.1
20260903070656 28 48 0.0 1.6 0.00 0.00 0.00 62 1015.2
20260903070152 28 59 3.2 4.8 0.00 0.00 0.00 62 1015.1
20260903065647 28 71 1.6 3.2 0.00 0.00 0.00 62 1015.0
20260903065147 28 135 0.0 6.4 0.00 0.00 0.00 61 1015.1
20260903064646 29 91 1.6 4.8 0.00 0.00 0.00 61 1014.9
20260903064141 29 214 4.8 11.3 0.00 0.00 0.00 60 1015.1
20260903063638 29 354 0.0 11.3 0.00 0.00 0.00 59 1015.1
20260903063138 29 245 3.2 9.7 0.00 0.00 0.00 59 1014.9
20260903062633 29 43 1.6 4.8 0.00 0.00 0.00 58 1015.0
20260903062129 30 354 1.6 16.1 0.00 0.00 0.00 58 1014.9
20260903061624 30 64 3.2 4.8 0.00 0.00 0.00 58 1015.0
20260903061123 30 137 3.2 4.8 0.00 0.00 0.00 58 1015.1
20260903060618 30 153 4.8 9.7 0.00 0.00 0.00 57 1015.0
20260903060114 30 46 1.6 12.9 0.00 0.00 0.00 57 1015.1
20260903055611 30 325 1.6 11.3 0.00 0.00 0.00 57 1014.8
20260903055109 30 139 1.6 4.8 0.00 0.00 0.00 57 1014.9
20260903054604 30 73 3.2 3.2 0.00 0.00 0.00 57 1015.0
20260903054100 30 104 3.2 9.7 0.00 0.00 0.00 57 1014.9
20260903053556 30 194 1.6 9.7 0.00 0.00 0.00 56 1014.9
20260903053052 30 61 3.2 9.7 0.00 0.00 0.00 56 1015.0
20260903052547 30 231 6.4 14.5 0.00 0.00 0.00 55 1014.8
20260903052043 30 271 3.2 6.4 0.00 0.00 0.00 54 1014.9
20260903051542 30 346 6.4 6.4 0.00 0.00 0.00 54 1014.8
20260903051038 30 11 4.8 11.3 0.00 0.00 0.00 54 1014.9
20260903050537 31 24 1.6 4.8 0.00 0.00 0.00 53 1014.8
20260903050033 31 76 3.2 3.2 0.00 0.00 0.00 53 1014.6
20260903045532 31 43 3.2 4.8 0.00 0.00 0.00 52 1014.8
20260903045029 31 234 0.0 4.8 0.00 0.00 0.00 52 1014.7
20260903044525 31 267 1.6 3.2 0.00 0.00 0.00 52 1014.8
20260903044020 31 107 0.0 4.8 0.00 0.00 0.00 51 1014.7
20260903043516 31 318 3.2 4.8 0.00 0.00 0.00 51 1014.7
20260903043015 31 144 3.2 6.4 0.00 0.00 0.00 50 1014.7
20260903042510 31 281 4.8 6.4 0.00 0.00 0.00 50 1014.8
20260903042006 31 52 3.2 4.8 0.00 0.00 0.00 50 1014.9
20260903041502 31 72 3.2 11.3 0.00 0.00 0.00 50 1014.8
20260903040958 31 138 3.2 4.8 0.00 0.00 0.00 50 1014.8
20260903040456 31 251 3.2 9.7 0.00 0.00 0.00 50 1014.7
20260903035953 31 284 1.6 6.4 0.00 0.00 0.00 49 1014.6
20260903035448 31 300 8.0 12.9 0.00 0.00 0.00 49 1014.7
20260903034943 31 230 3.2 4.8 0.00 0.00 0.00 49 1014.6
20260903034437 31 207 3.2 6.4 0.00 0.00 0.00 48 1014.9
20260903033933 32 302 8.0 11.3 0.00 0.00 0.00 48 1014.6
20260903033429 32 46 0.0 11.3 0.00 0.00 0.00 48 1014.6
20260903032929 32 52 6.4 9.7 0.00 0.00 0.00 47 1014.8
20260903032424 32 152 3.2 11.3 0.00 0.00 0.00 47 1014.8
20260903031919 32 211 0.0 4.8 0.00 0.00 0.00 47 1014.8
20260903031419 32 0 0.0 3.2 0.00 0.00 0.00 47 1014.6
20260903030914 32 241 0.0 6.4 0.00 0.00 0.00 46 1014.8
20260903030410 32 280 3.2 3.2 0.00 0.00 0.00 46 1014.7
20260903025906 32 253 1.6 6.4 0.00 0.00 0.00 46 1014.6
20260903025401 32 47 0.0 4.8 0.00 0.00 0.00 45 1014.8
20260903024856 32 43 4.8 6.4 0.00 0.00 0.00 45 1014.7
20260903024350 32 32 3.2 3.2 0.00 0.00 0.00 45 1014.7
20260903023845 32 302 3.2 3.2 0.00 0.00 0.00 45 1014.7
20260903023341 32 70 3.2 4.8 0.00 0.00 0.00 44 1014.6
20260903022836 32 303 4.8 6.4 0.00 0.00 0.00 44 1014.4
20260903022335 33 176 1.6 3.2 0.00 0.00 0.00 44 1014.4
20260903021834 33 74 3.2 6.4 0.00 0.00 0.00 44 1014.5
20260903021330 33 53 1.6 4.8 0.00 0.00 0.00 44 1014.3
20260903020830 33 104 3.2 6.4 0.00 0.00 0.00 44 1014.2
20260903020325 33 320 1.6 4.8 0.00 0.00 0.00 44 1014.2
20260903015819 33 224 0.0 6.4 0.00 0.00 0.00 44 1014.1
20260903015315 33 155 1.6 1.6 0.00 0.00 0.00 44 1014.1
20260903014810 33 56 0.0 1.6 0.00 0.00 0.00 44 1013.9
20260903014309 33 23 0.0 1.6 0.00 0.00 0.00 44 1014.0
20260903013804 33 250 1.6 6.4 0.00 0.00 0.00 43 1013.8
20260903013303 33 342 0.0 3.2 0.00 0.00 0.00 43 1013.8
20260903012803 34 226 0.0 3.2 0.00 0.00 0.00 43 1013.7
20260903012257 34 208 0.0 1.6 0.00 0.00 0.00 43 1013.7
20260903011752 34 273 1.6 3.2 0.00 0.00 0.00 42 1013.5
20260903011251 34 302 0.0 1.6 0.00 0.00 0.00 42 1013.7
20260903010746 34 168 0.0 3.2 0.00 0.00 0.00 42 1013.6
20260903010241 35 138 3.2 4.8 0.00 0.00 0.00 41 1013.5
20260903005740 35 34 1.6 3.2 0.00 0.00 0.00 41 1013.6
20260903005234 35 249 1.6 6.4 0.00 0.00 0.00 40 1013.4
20260903004725 35 27 1.6 3.2 0.00 0.00 0.00 40 1013.4
20260903004221 35 316 3.2 6.4 0.00 0.00 0.00 40 1013.5
20260903003715 35 22 1.6 3.2 0.00 0.00 0.00 40 1013.5
20260903003211 35 23 3.2 6.4 0.00 0.00 0.00 39 1013.4
20260903002706 35 46 3.2 6.4 0.00 0.00 0.00 39 1013.5
20260903002200 35 114 1.6 4.8 0.00 0.00 0.00 39 1013.3
20260903001655 36 215 1.6 6.4 0.00 0.00 0.00 39 1013.4
20260903001155 36 247 1.6 3.2 0.00 0.00 0.00 39 1013.4
20260903000650 36 322 0.0 3.2 0.00 0.00 0.00 39 1013.3
20260903000144 36 58 3.2 9.7 0.00 0.00 0.00 38 1013.5
20260902235642 36 229 6.4 9.7 0.00 0.00 0.00 38 1013.3
20260902235132 36 284 0.0 4.8 0.00 0.00 0.00 37 1013.3
20260902234625 36 283 1.6 3.2 0.00 0.00 0.00 37 1013.3
20260902234124 36 276 1.6 4.8 0.00 0.00 0.00 37 1013.4
20260902233619 36 152 6.4 9.7 0.00 0.00 0.00 37 1013.4
20260902233113 36 320 4.8 6.4 0.00 0.00 0.00 37 1013.5
20260902232608 37 40 6.4 9.7 0.00 0.00 0.00 37 1013.5
20260902232102 37 256 1.6 12.9 0.00 0.00 0.00 36 1013.5
20260902231601 37 180 1.6 11.3 0.00 0.00 0.00 36 1013.4
20260902231056 37 183 0.0 6.4 0.00 0.00 0.00 36 1013.5
20260902230551 37 42 3.2 3.2 0.00 0.00 0.00 36 1013.6
20260902230050 37 253 6.4 11.3 0.00 0.00 0.00 35 1013.6
20260902225546 37 87 0.0 6.4 0.00 0.00 0.00 35 1013.5
20260902225044 37 64 1.6 4.8 0.00 0.00 0.00 34 1013.7
20260902224543 37 312 4.8 12.9 0.00 0.00 0.00 35 1013.6
20260902224039 38 253 4.8 6.4 0.00 0.00 0.00 35 1013.6
20260902223535 38 358 3.2 4.8 0.00 0.00 0.00 34 1013.5
20260902223034 38 44 1.6 4.8 0.00 0.00 0.00 34 1013.6
20260902222533 38 310 1.6 6.4 0.00 0.00 0.00 33 1013.7
20260902222033 38 15 6.4 11.3 0.00 0.00 0.00 33 1013.9
20260902221533 38 291 1.6 1.6 0.00 0.00 0.00 34 1013.9